Regional Weather Roundup
Issued by NWS

Home | Current Version | Previous Version | Graphics & Text | Print | Product List | Glossary On
Versions: 1 2 3 4 5 6 7 8 9 10 11 12 13 14 15 16 17 18 19 20 21 22 23 24 25 26 27 28 29 30 31 32 33 34 35 36 37 38 39 40 41 42 43 44 45 46 47 48 49 50
000
ASUS43 KFSD 180702
RWRSD

WEATHER ROUNDUP FOR SOUTH DAKOTA
NATIONAL WEATHER SERVICE SIOUX FALLS SD
100 AM CST THU DEC 18 2014

NOTE: "FAIR" INDICATES FEW OR NO CLOUDS BELOW 12,000 FEET WITH NO
SIGNIFICANT WEATHER AND/OR OBSTRUCTIONS TO VISIBILITY.


SDZ001>005-009-010-012>017-180800-
NORTHWEST AND NORTH CENTRAL SOUTH DAKOTA

CITY           SKY/WX    TMP DP  RH WIND       PRES   REMARKS
BUFFALO          N/A     23  19  85 S8        29.92S WCI  14
FAITH            N/A     21  16  81 SE12      30.05F WCI   9
MOBRIDGE       CLOUDY    17  14  88 SE9       30.12F WCI   6
$$

SDZ012>016-024>037-041>051-057-063-072>074-180800-
SOUTHWEST AND SOUTH CENTRAL SOUTH DAKOTA

CITY           SKY/WX    TMP DP  RH WIND       PRES   REMARKS
RAPID CTY ARPT CLOUDY    22  20  92 SE6       30.00F WCI  14
PIERRE         CLOUDY    18  16  92 SE13      30.14F FOG     WCI   5
CUSTER         CLEAR     22  15  75 NW5       29.90S WCI  16
ELLSWORTH AFB  CLOUDY    22  21  93 S7        29.99F WCI  14
PHILIP         CLOUDY    23  19  85 E7        30.07F WCI  15
PINE RIDGE     CLOUDY    18  16  92 S7        30.02F WCI   9
WINNER         CLOUDY    23  19  85 SE10      30.13F WCI  12
$$

SDZ004>011-016>023-039-040-180800-
NORTHEAST SOUTH DAKOTA

CITY           SKY/WX    TMP DP  RH WIND       PRES   REMARKS
ABERDEEN       CLOUDY    14   9  80 SE5       30.25F WCI   6
WATERTOWN      CLOUDY     8   4  83 CALM      30.22F
SISSETON         N/A      0  -4  83 CALM      30.28F
$$

SDZ017-020-022-023-036>040-048>070-180800-
SOUTHEAST SOUTH DAKOTA

CITY           SKY/WX    TMP DP  RH WIND       PRES   REMARKS
SIOUX FALLS    CLOUDY    15  11  83 NE3       30.26S
HURON          CLOUDY    15  10  80 SE7       30.24F WCI   5
MITCHELL       CLOUDY    17  13  84 SE6       30.26F WCI   9
YANKTON        CLOUDY    18  12  79 NE3       30.26F
$$

ABBREVIATIONS USED IN REMARKS
   TC - TEMPERATURE IN CELSIUS
  WCI - WIND CHILL INDEX
   HX - HEAT INDEX
  VSB - VISIBILITY



USA.gov is the U.S. government's official web portal to all federal, state and local government web resources and services.